DW7304 Weather Reports


Display with metric or nautical units.
time (UTC)temp
F
wind
direction
speed
MPH
gust
MPH
rain 1hr
in
rain 24hr
in
rain mn
in
humidity
%
barometer
mb
20260504000003 54 106 1.0 2.0 0.00 0.00 0.00 49 1013.7
20260503235403 54 108 1.0 2.0 0.00 0.00 0.00 49 1013.8
20260503234717 54 112 1.0 2.0 0.00 0.00 0.00 50 1013.9
20260503233818 54 108 2.0 2.0 0.00 0.00 0.00 50 1013.7
20260503232917 54 100 2.0 2.0 0.00 0.00 0.00 51 1013.8
20260503231803 54 104 1.0 2.0 0.00 0.00 0.00 51 1013.8
20260503230903 54 91 1.0 2.0 0.00 0.00 0.00 51 1013.7
20260503230004 54 72 1.0 2.0 0.00 0.00 0.00 52 1013.7
20260503225403 54 74 2.0 2.0 0.00 0.00 0.00 52 1013.7
20260503224503 53 79 0.0 2.0 0.00 0.00 0.00 53 1013.7
20260503223603 53 0 0.0 0.0 0.00 0.00 0.00 54 1013.8
20260503222703 53 0 0.0 0.0 0.00 0.00 0.00 56 1013.8
20260503221803 53 0 0.0 0.0 0.00 0.00 0.00 57 1013.8
20260503221118 54 0 0.0 0.0 0.00 0.00 0.00 57 1014.0
20260503220004 54 0 0.0 0.0 0.00 0.00 0.00 58 1014.0
20260503215403 54 0 0.0 0.0 0.00 0.00 0.00 58 1014.0
20260503214503 54 0 0.0 0.0 0.00 0.00 0.00 58 1013.8
20260503213603 54 0 0.0 0.0 0.00 0.00 0.00 58 1013.8
20260503212703 54 0 0.0 0.0 0.00 0.00 0.00 58 1013.8
20260503211803 54 112 1.0 2.0 0.00 0.00 0.00 58 1013.7
20260503210904 54 103 2.0 2.0 0.00 0.00 0.00 58 1013.7
20260503210004 54 79 1.0 2.0 0.00 0.00 0.00 59 1013.7
20260503205403 54 69 1.0 2.0 0.00 0.00 0.00 59 1013.6
20260503204503 54 56 1.0 2.0 0.00 0.00 0.00 59 1013.6
20260503203603 54 39 1.0 2.0 0.00 0.00 0.00 59 1013.7
20260503202703 54 39 2.0 2.0 0.00 0.00 0.00 59 1013.7
20260503201803 54 76 1.0 2.0 0.00 0.00 0.00 59 1013.7
20260503200903 54 64 2.0 4.0 0.00 0.00 0.00 59 1013.6
20260503200003 54 65 2.0 3.0 0.00 0.00 0.00 59 1013.7
20260503195403 54 79 2.0 2.0 0.00 0.00 0.00 59 1013.9
20260503194503 54 79 1.0 2.0 0.00 0.00 0.00 59 1013.8
20260503193603 54 70 2.0 3.0 0.00 0.00 0.00 59 1013.7
20260503192703 54 50 3.0 3.0 0.00 0.00 0.00 59 1013.7
20260503192017 54 63 2.0 3.0 0.00 0.00 0.00 58 1013.7
20260503190903 55 83 1.0 2.0 0.00 0.00 0.00 58 1013.7
20260503190003 54 68 2.0 3.0 0.00 0.00 0.00 58 1013.7
20260503185403 54 66 2.0 3.0 0.00 0.00 0.00 58 1013.7
20260503184503 55 65 2.0 3.0 0.00 0.00 0.00 57 1013.6
20260503183603 55 78 1.0 2.0 0.00 0.00 0.00 56 1013.6
20260503182703 56 83 2.0 3.0 0.00 0.00 0.00 55 1013.6
20260503181803 56 94 1.0 4.0 0.00 0.00 0.00 54 1013.7
20260503180903 57 45 0.0 1.0 0.00 0.00 0.00 53 1013.7
20260503180003 59 253 1.0 6.0 0.00 0.00 0.00 52 1013.7
20260503175403 59 222 2.0 6.0 0.00 0.00 0.00 52 1013.7
20260503174503 59 196 2.0 6.0 0.00 0.00 0.00 52 1013.7
20260503173603 60 210 4.0 8.0 0.00 0.00 0.00 51 1013.7
20260503172703 60 209 5.0 8.0 0.00 0.00 0.00 51 1013.7
20260503171803 62 196 4.0 10.0 0.00 0.00 0.00 50 1013.7
20260503171118 62 207 5.0 10.0 0.00 0.00 0.00 50 1013.8
20260503150903 67 226 5.0 12.0 0.00 0.00 0.00 45 1014.2
20260503130903 66 224 7.0 16.0 0.00 0.00 0.00 46 1014.6
20260503100216 64 230 6.0 11.0 0.00 0.00 0.00 47 1015.6
20260503090218 62 237 8.0 16.0 0.00 0.00 0.00 50 1015.7
20260503080903 61 245 7.0 14.0 0.00 0.00 0.00 50 1015.7
20260503072703 60 249 5.0 11.0 0.00 0.00 0.00 53 1015.4
20260503071803 60 252 5.0 9.0 0.00 0.00 0.00 54 1015.5
20260503071118 60 246 5.0 10.0 0.00 0.00 0.00 54 1015.3
20260503060217 58 194 3.0 5.0 0.00 0.00 0.00 56 1015.1
20260503054503 57 186 2.0 5.0 0.00 0.00 0.00 57 1015.1
20260503053603 56 180 1.0 4.0 0.00 0.00 0.00 57 1015.0
20260503052703 56 169 1.0 3.0 0.00 0.00 0.00 57 1015.0
20260503051803 56 151 1.0 3.0 0.00 0.00 0.00 58 1015.1
20260503050903 55 133 1.0 2.0 0.00 0.00 0.00 59 1015.1
20260503050003 54 140 1.0 2.0 0.00 0.00 0.00 60 1015.0
20260503045403 54 130 1.0 2.0 0.00 0.00 0.00 60 1015.0
20260503044503 53 122 1.0 2.0 0.00 0.00 0.00 61 1015.0
20260503043603 53 0 0.0 0.0 0.00 0.00 0.00 61 1015.0
20260503042916 53 135 0.0 2.0 0.00 0.00 0.00 61 1015.0
20260503042017 53 147 1.0 2.0 0.00 0.00 0.00 62 1015.0
20260503040903 52 122 1.0 2.0 0.00 0.00 0.00 63 1015.1
20260503040004 52 0 0.0 0.0 0.00 0.00 0.00 62 1015.0
20260503035403 52 0 0.0 0.0 0.00 0.00 0.00 62 1015.0
20260503034503 52 0 0.0 0.0 0.00 0.00 0.00 62 1015.0
20260503033818 52 0 0.0 0.0 0.00 0.00 0.00 62 1014.9
20260503032703 53 0 0.0 0.0 0.00 0.00 0.00 61 1015.0
20260503031803 52 112 0.0 1.0 0.00 0.00 0.00 61 1015.0
20260503030903 52 114 0.0 1.0 0.00 0.00 0.00 61 1015.1
20260503030003 53 117 0.0 1.0 0.00 0.00 0.00 61 1015.2
20260503025403 53 112 0.0 2.0 0.00 0.00 0.00 61 1015.1
20260503024503 53 112 0.0 2.0 0.00 0.00 0.00 61 1015.2
20260503023603 53 113 1.0 2.0 0.00 0.00 0.00 61 1015.1
20260503022703 53 112 1.0 2.0 0.00 0.00 0.00 61 1015.3
20260503021803 53 112 1.0 2.0 0.00 0.00 0.00 61 1015.3
20260503020903 53 111 2.0 2.0 0.00 0.00 0.00 61 1015.3
20260503020003 53 103 2.0 2.0 0.00 0.00 0.00 61 1015.4
20260503015403 53 105 2.0 2.0 0.00 0.00 0.00 61 1015.4
20260503014503 53 107 2.0 3.0 0.00 0.00 0.00 61 1015.5
20260503013603 53 107 2.0 2.0 0.00 0.00 0.00 60 1015.5
20260503012703 53 110 2.0 2.0 0.00 0.00 0.00 60 1015.6
20260503011803 54 115 1.0 2.0 0.00 0.00 0.00 59 1015.7
20260503010903 54 126 1.0 2.0 0.00 0.00 0.00 59 1015.8
20260503010217 54 136 1.0 2.0 0.00 0.00 0.00 59 1015.8
20260503005403 54 129 1.0 2.0 0.00 0.00 0.00 60 1015.8
20260503004503 54 116 2.0 2.0 0.00 0.00 0.00 60 1015.8
20260503003603 54 112 2.0 3.0 0.00 0.00 0.00 60 1015.9
20260503002704 54 113 2.0 2.0 0.00 0.00 0.00 60 1016.0
20260503001803 54 111 2.0 2.0 0.00 0.00 0.00 60 1016.0
20260503000903 54 110 2.0 2.0 0.00 0.00 0.00 59 1016.1